Regional Weather Roundup
Issued by NWS

Home | Current Version | Previous Version | Text Only | Print | Product List | Glossary Off
Versions: 1 2 3 4 5 6 7 8 9 10 11 12 13 14 15 16 17 18 19 20 21 22 23 24 25 26 27 28 29 30 31 32 33 34 35 36 37 38 39 40 41 42 43 44 45 46 47 48 49 50

000
ASUS45 KTFX 031304
RWRMT
MONTANA HOURLY WEATHER ROUNDUP
NATIONAL WEATHER SERVICE GREAT FALLS MT
604 AM MST TUE MAR 3 2015

NOTE: "FAIR" INDICATES FEW OR NO CLOUDS BELOW 12000 FEET WITH NO
SIGNIFICANT WEATHER AND/OR OBSTRUCTIONS TO VISIBILITY.

* THESE STATIONS ARE NOT UNDER NWS QUALITY CONTROL. THEY DO NOT
   REPORT WEATHER SUCH AS PRECIPITATION OR FOG.

MTZ001>007-043-031400-
WEST OF THE DIVIDE
CITY           SKY/WX    TMP DP  RH WIND       PRES   REMARKS
KALISPELL      CLEAR     10   0  64 N5        30.16S WCI   1
MISSOULA       PTCLDY    16   0  49 E10       30.15R WCI   4
BUTTE          CLOUDY     7  -2  66 N6        29.98R WCI  -4
MULLAN PASS    FAIR       5   3  91 SE6       29.90S WCI  -6
* ANACONDA     PTCLDY     5  -6  60 NW11G16    N/A   WCI -10
* ESSEX        N/A        4  -6  63 S4         N/A
* LINCOLN      N/A        4  -5  66 NE8G18     N/A   WCI  -9
* LOOKOUT PASS N/A       11   5  77 N2         N/A
* POLSON       N/A       16   2  54 NW2        N/A
* RONAN APT    PTCLDY    19  12  74 N/A        N/A
* SEELEY LAKE  N/A        3  -4  72 NE1        N/A
* THOMP F APT  PTCLDY    10  -3  55 NW10G25    N/A   WCI  -4
$$

MTZ008-052>055-031400-
SOUTHWEST MONTANA
CITY           SKY/WX    TMP DP  RH WIND       PRES   REMARKS
BOZEMAN        LGT SNOW  10   7  88 S10       30.05R VSB 1 3/4 WCI  -4
DILLON         PTCLDY     7   0  73 N12       29.96R WCI  -9
* W YELLOWSTON CLOUDY     6   0  76 N6G17      N/A   WCI  -5
* THREE FORKS  CLEAR     10  -2  58 N14G21     N/A   WCI  -6
* BOULDER HILL N/A        2  -3  79 N14G21     N/A   WCI -16
* MONIDA PASS  N/A        5  -1  76 NW16       N/A   WCI -14
* RAYNOLDS PAS N/A        2   0  91 NW22G31    N/A   WCI -20
* WHITEHALL    N/A       11   1  64 NE11G19    N/A   WCI  -3
* WISE RIVER   N/A        6  -7  55 E12G19     N/A   WCI -10
$$

MTZ009>010-012-014-046-048-049-054-031400-
EAST SLOPES AND CENTRAL MONTANA
CITY           SKY/WX    TMP DP  RH WIND       PRES   REMARKS
CUT BANK       CLEAR     -6  -8  91 W9        30.18F WCI -22
GREAT FALLS    CLEAR      1  -2  87 CALM      30.19F
HELENA         CLEAR      9   0  66 NW10      30.15F WCI  -5
* DEARBORN     N/A        8   2  76 VRB7       N/A   WCI  -3
* EAST GLACIER N/A       -6 -10  82 E1         N/A
* MONARCH      N/A       -5 -10  79 S1         N/A
* PENDROY      N/A       -5  -8  87 W4         N/A
* ROGERS PASS  N/A       -1  -5  83 S2         N/A
* SWEET GRASS  N/A       -2  -9  72 NW12       N/A   WCI -20
$$

MTZ011-013-016-021-035-040-045-047-050-051-031400-
NORTH CENTRAL MONTANA
CITY           SKY/WX    TMP DP  RH WIND       PRES   REMARKS
HAVRE          CLEAR      1  -4  79 W8        30.25F WCI -13
LEWISTOWN      PTCLDY     0  -8  68 W14       30.12F WCI -19
* N BAR RANCH  CLOUDY     1  -8  65 NW26G32   30.05S WCI -23
* CHESTER      N/A        2  -6  69 NW3G8      N/A
* DENTON       N/A        3  -4  72 W6         N/A   WCI  -8
* GEYSER       N/A      N/A N/A N/A W14        N/A
* JUDITH GAP   N/A        1   0  95 N27        N/A   WCI -23
* LOMA         N/A        6  -3  66 NW6        N/A   WCI  -5
$$

MTZ017>020-022>027-061-062-031400-
NORTHEAST MONTANA
CITY           SKY/WX    TMP DP  RH WIND       PRES   REMARKS
GLASGOW        CLEAR      5  -4  66 NW17      30.16R WCI -14
GLENDIVE       PTCLDY     7  -4  60 NW20G25   30.10S WCI -13
JORDAN         PTCLDY     9   1  70 NW15      30.16R WCI  -8
SIDNEY         MOCLDY     7   0  73 W20G25    30.14R WCI -13
WOLF POINT     CLEAR      7  -2  66 W7        30.18R WCI  -5
* BEAVER HILL  N/A        5  -1  76 NW15G22    N/A   WCI -13
* CIRCLE       N/A        7   0  73 NW11       N/A   WCI  -8
* LINDSAY DVD  N/A        2  -5  72 W21G26     N/A   WCI -20
* NAVAJO       N/A       -1  -8  72 NW17G26    N/A   WCI -22
* SACO         N/A        5  -1  76 W12G20     N/A   WCI -11
$$

MTZ028>042-056>058-031400-
SOUTHCENTRAL AND SOUTHEAST MONTANA
CITY           SKY/WX    TMP DP  RH WIND       PRES   REMARKS
BAKER          MOCLDY     9   0  66 NW23      30.03R WCI -11
BILLINGS       LGT SNOW  10   7  88 NE10      30.12R VSB 1 1/4 WCI  -4
LIVINGSTON     LGT SNOW   9   1  70 N5        30.05R VSB 3
MILES CITY     CLOUDY    10   0  64 N14       30.14R WCI  -6
* LAUREL APT   CLOUDY    10   1  67 N/A        N/A
* ROUNDUP APT  PTCLDY     7  -4  60 N6         N/A   WCI  -4
* ALZADA       N/A       11   6  80 NW12G17    N/A   WCI  -4
* HYSHAM       N/A        8   0  70 N6G12      N/A   WCI  -2
* REED POINT   N/A       11   2  67 N/A        N/A
* ROSCOE HILL  N/A        4   0  83 W3G9       N/A
$$

REGIONAL REPORTS...DAKOTAS
CITY           SKY/WX    TMP DP  RH WIND       PRES   REMARKS
WILLISTON      CLOUDY     3  -2  79 NW9       30.09R WCI -11
DICKINSON      MOCLDY     3  -8  60 NW23G32   29.97R WCI -19
BEACH          MOCLDY     3   0  87 NW13      30.05R WCI -14
CROSBY         FAIR       0  -8  68 NW16G22   30.05R WCI -20
WATFORD CITY   MOCLDY     3  -4  72 NW14      30.05R WCI -15
BISMARCK       MOCLDY     9   0  66 NW17G25   29.98R WCI  -9
GRAND FORKS    CLOUDY    16   9  74 NW21G29   29.80S WCI  -1
FARGO          LGT SNOW  19  12  74 NW25      29.76R VSB 2 1/2 WCI   1
BUFFALO SD     CLOUDY    10   3  73 NW21      29.91R WCI  -9
RAPID CITY     LGT SNOW  12   9  88 NW41G47   29.94R VSB 3/4  WCI -12
$$

REGIONAL REPORTS...WYOMING/IDAHO/WASHINGTON
CITY           SKY/WX    TMP DP  RH WIND       PRES   REMARKS
GILLETTE       LGT SNOW   9   3  76 N10       29.97R WCI  -5
SHERIDAN       LGT SNOW  12   9  88 W14       30.04R WCI  -4
CODY           CLOUDY     9   7  91 N22       29.95R VSB 3    WCI -11
YELLOWSTONE LA MOCLDY     3  -2  79 VRB7      29.73R WCI  -9
SALMON         CLOUDY    19   1  45 N9        29.97R WCI   8
MULLAN PASS    FAIR       5   3  91 SE6       29.90S WCI  -6
SAND POINT     CLEAR     21  10  62 N7        30.18R WCI  12
SPOKANE        FAIR      21  16  81 NE10      30.13S WCI  10

$$



USA.gov is the U.S. government's official web portal to all federal, state and local government web resources and services.